Home   Weather   Mosbach   Past weeks

Flag for Germany Past Weather in Mosbach, Baden-Württemberg, Germany — Yesterday and Last 2 Weeks

Now
39 °F

Partly sunny.


Feels Like: 34 °F
Forecast: 37 / 64 °F
Wind: 7 mph from Southwest

Location: Niederstetten

Current Time: Apr 29, 2017 at 8:02:36 am

Latest Report: Apr 29, 2017 at 7:20 am


Visibility: N/A

Pressure: 30.04 "Hg

Humidity: 81%

Dew Point: 34 °F

Location of MosbachLocation

Past Weather in Mosbach — Graph

°F

Mosbach Temperature Yesterday

Maximum temperature yesterday: 50 °F (at 4:20 pm)
Minimum temperature yesterday: 37 °F (at 3:20 am)
Average temperature yesterday: 43 °F

High & Low Weather Summary for the Past Weeks

 TemperatureHumidityPressure
High59 °F (Apr 24, 4:20 pm)100% (Apr 17, 8:20 am)30.54 "Hg (Apr 17, 8:20 am)
Low27 °F (Apr 20, 5:20 am)29% (Apr 24, 5:20 pm)29.68 "Hg (Apr 25, 5:20 am)
Average41 °F71%30.08 "Hg
* Reported Apr 14 6:20 am — Apr 29 6:20 am, Mosbach, Weather by CustomWeather, © 2017

Note: Actual official high and low records may vary slightly from our data, if they occured in-between our weather recording intervals... More about our weather records

Advertising

Mosbach Weather History for the Previous 24 Hours

Scroll right to see more
 ConditionsComfort  
Time TempWeatherWind HumidityBarometerVisibility
6:20 am
Sat, Apr 29
37 °FPartly sunny.7 mph87%30.04 "HgN/A
5:20 am37 °FPassing clouds.6 mph81%30.01 "HgN/A
4:20 am39 °FPassing clouds.7 mph75%30.01 "HgN/A
3:20 am39 °FPassing clouds.6 mph75%30.01 "HgN/A
2:20 am41 °FPassing clouds.3 mph70%30.01 "HgN/A
1:20 am41 °FPartly cloudy.7 mph66%30.01 "HgN/A
12:20 am41 °FPartly cloudy.7 mph66%30.01 "HgN/A
11:20 pm
Fri, Apr 28
41 °FPassing clouds.5 mph61%30.01 "HgN/A
10:20 pm43 °FPartly cloudy.5 mph57%29.98 "HgN/A
9:20 pm43 °FPassing clouds.5 mph57%29.98 "HgN/A
8:20 pm46 °FScattered showers. Scattered clouds.7 mph50%29.95 "HgN/A
7:20 pm46 °FScattered clouds.8 mph46%29.92 "HgN/A
6:20 pm48 °FBroken clouds.7 mph37%29.92 "HgN/A
5:20 pm48 °FPartly sunny.2 mph54%29.92 "HgN/A
4:20 pm50 °FBroken clouds.5 mph43%29.89 "HgN/A
3:20 pm48 °FBroken clouds.5 mph50%29.92 "HgN/A
2:20 pm45 °FBroken clouds.7 mph57%29.92 "HgN/A
1:20 pm48 °FBroken clouds.5 mph54%29.89 "HgN/A
12:20 pm46 °FBroken clouds.6 mph57%29.86 "HgN/A
11:20 am46 °FScattered clouds.7 mph66%29.89 "HgN/A
10:20 am43 °FScattered clouds.6 mph76%29.89 "HgN/A
9:20 am39 °FBroken clouds.3 mph93%29.89 "Hg5 mi
8:20 am39 °FFog.3 mph93%29.89 "Hg3 mi
Weather by CustomWeather, © 2017

See weather overviewHow to use our weather pages